TimeEDT,TemperatureF,Dew PointF,Humidity,Sea Level PressureIn,VisibilityMPH,Wind Direction,Wind SpeedMPH,Gust SpeedMPH,PrecipitationIn,Events,Conditions,WindDirDegrees,DateUTC
12:52 AM,55.0,28.9,37,30.04,10.0,NW,13.8,21.9,N/A,,Clear,320,2013-05-13 04:52:00
1:52 AM,53.1,30.0,41,30.04,10.0,NW,10.4,-,N/A,,Clear,310,2013-05-13 05:52:00
2:52 AM,51.1,32.0,48,30.04,10.0,NW,6.9,-,N/A,,Clear,320,2013-05-13 06:52:00
3:52 AM,48.9,33.1,54,30.05,10.0,NNW,4.6,-,N/A,,Clear,330,2013-05-13 07:52:00
4:52 AM,42.1,36.0,79,30.06,10.0,SW,3.5,-,N/A,,Clear,230,2013-05-13 08:52:00
5:01 AM,41.0,35.6,81,30.06,10.0,WSW,4.6,-,N/A,,Partly Cloudy,240,2013-05-13 09:01:00
5:52 AM,39.9,36.0,86,30.08,10.0,SSW,4.6,-,N/A,,Partly Cloudy,210,2013-05-13 09:52:00
6:52 AM,44.1,37.9,79,30.10,10.0,West,5.8,-,N/A,,Scattered Clouds,260,2013-05-13 10:52:00
7:52 AM,53.1,35.1,50,30.12,10.0,WNW,13.8,-,N/A,,Scattered Clouds,300,2013-05-13 11:52:00
8:52 AM,55.9,28.9,36,30.12,10.0,NW,10.4,-,N/A,,Scattered Clouds,310,2013-05-13 12:52:00
9:52 AM,57.9,28.9,33,30.12,10.0,WNW,10.4,19.6,N/A,,Mostly Cloudy,290,2013-05-13 13:52:00
10:52 AM,59.0,28.9,32,30.11,10.0,NW,12.7,-,N/A,,Mostly Cloudy,310,2013-05-13 14:52:00
11:52 AM,57.9,28.9,33,30.11,10.0,West,10.4,18.4,N/A,,Mostly Cloudy,260,2013-05-13 15:52:00
12:52 PM,57.9,30.9,36,30.10,10.0,WNW,13.8,23.0,N/A,,Mostly Cloudy,300,2013-05-13 16:52:00
1:52 PM,61.0,32.0,34,30.08,10.0,West,15.0,28.8,N/A,,Mostly Cloudy,260,2013-05-13 17:52:00
2:52 PM,59.0,28.9,32,30.07,10.0,West,19.6,25.3,N/A,,Mostly Cloudy,260,2013-05-13 18:52:00
3:08 PM,60.8,30.2,31,30.06,10.0,NW,16.1,-,N/A,,Overcast,320,2013-05-13 19:08:00
3:52 PM,62.1,30.0,30,30.05,10.0,WNW,15.0,19.6,N/A,,Mostly Cloudy,300,2013-05-13 19:52:00
4:52 PM,61.0,27.0,27,30.03,10.0,WNW,12.7,23.0,N/A,,Mostly Cloudy,290,2013-05-13 20:52:00
5:52 PM,60.1,26.1,27,30.03,10.0,WNW,18.4,24.2,N/A,,Mostly Cloudy,300,2013-05-13 21:52:00
6:52 PM,60.1,23.0,24,30.03,10.0,WNW,15.0,-,N/A,,Scattered Clouds,290,2013-05-13 22:52:00
7:52 PM,57.9,25.0,28,30.06,10.0,WNW,16.1,-,N/A,,Mostly Cloudy,290,2013-05-13 23:52:00
8:52 PM,54.0,26.1,34,30.09,10.0,NNW,9.2,-,N/A,,Partly Cloudy,330,2013-05-14 00:52:00
9:52 PM,53.1,25.0,34,30.12,10.0,NW,9.2,-,N/A,,Clear,320,2013-05-14 01:52:00
10:52 PM,51.1,30.0,44,30.14,10.0,NW,5.8,-,N/A,,Clear,310,2013-05-14 02:52:00
11:52 PM,50.0,30.9,48,30.15,10.0,NNW,8.1,-,N/A,,Clear,330,2013-05-14 03:52:00